Regional Weather Roundup
Issued by NWS Jackson, KY

Home | Current Version | Previous Version | Text Only | Print | Product List | Glossary Off
Versions: 1 2 3 4 5 6 7 8 9 10 11 12 13 14 15 16 17 18 19 20 21 22 23 24 25 26 27 28 29 30 31 32 33 34 35 36 37 38 39 40 41 42 43 44 45 46 47 48 49 50

657
ASUS43 KJKL 231810
RWRJKL

EAST KENTUCKY HOURLY WEATHER ROUNDUP
NATIONAL WEATHER SERVICE JACKSON KY
100 PM EST MON JAN 23 2017

NOTE: "FAIR" INDICATES FEW OR NO CLOUDS BELOW 12,000 FEET WITH
NO SIGNIFICANT WEATHER AND/OR OBSTRUCTIONS TO VISIBILITY.

* THESE REPORTS ARE NOT UNDER NWS QUALITY CONTROL AND MAY NOT
  REPORT WEATHER SUCH AS PRECIPITATION AND FOG.

KYZ079-080-083-085-087-088-110-112-115-119-120-231900
...EASTERN KENTUCKY...

CITY           SKY/WX    TMP DP  RH WIND       PRES   REMARKS
JACKSON        LGT RAIN  50  47  89 VRB6      29.41S FOG
6HR MIN TEMP:  50; 6HR MAX TEMP:  51; 6HR PCP:  0.34;

LONDON         CLOUDY    50  46  86 NW14G25   29.45R
6HR MIN TEMP:  50; 6HR MAX TEMP:  52; 6HR PCP:  0.13;

SOMERSET*      DRIZZLE   50  48  93 N15       29.51S
MONTICELLO*    CLOUDY    52  48  86 N17G28    29.52R
6HR MIN TEMP:  51; 6HR MAX TEMP:  53; 6HR PCP:  0.18;

WILLIAMSBURG*  CLOUDY    48  48 100 NW9G24    29.46R
MIDDLESBORO*   RAIN      54  50  89 NW12G28   29.41R
6HR MIN TEMP:  50; 6HR MAX TEMP:  54; 6HR PCP:  0.10;

HARLAN APT*    CLOUDY    52  46  82 CALM      29.39R
PIKE CO APT*   DRIZZLE   48  48 100 N8        29.37S
BIG SANDY APT* HVY RAIN  50  50 100 N5        29.38S
6HR MIN TEMP:  49; 6HR MAX TEMP:  51;

MOREHEAD APT*  LGT RAIN  48  46  93 NW12      29.47S
ASHLAND*       CLOUDY    50  46  87 N6        29.42S
$$

KYZ035-036-041-042-044-050-067-078-099-231900
...CENTRAL KENTUCKY...

CITY           SKY/WX    TMP DP  RH WIND       PRES   REMARKS
MT STERLING*   CLOUDY    46  45  93 N13G20    29.49S
FLEMING/MASON* CLOUDY    47  47  98 N8G16     29.48F FOG
DANVILLE*      DRIZZLE   48  46  93 N17G25    29.53R
LEXINGTON      LGT RAIN  47  45  93 N15G23    29.52S FOG
6HR MIN TEMP:  47; 6HR MAX TEMP:  52; 6HR PCP:  0.16;

FRANKFORT      CLOUDY    49  44  83 NW10      29.53S HAZE
6HR MIN TEMP:  49; 6HR MAX TEMP:  51; 6HR PCP:  0.04;

LOUISVILLE     CLOUDY    50  43  77 NW15      29.59S
6HR MIN TEMP:  50; 6HR MAX TEMP:  53;

LEBANON*       CLOUDY    48  46  93 NW15G24   29.55S
GLASGOW*       CLOUDY    46  46 100 NW12G18   29.61R FOG
BOWLING GREEN  CLOUDY    46  41  82 NW15G21   29.65R
6HR MIN TEMP:  46; 6HR MAX TEMP:  51;

$$

KYZ091>093-OHZ055-061-077-WVZ005-015-034-035-042-231900
...SOUTHERN OHIO/WEST VIRGINIA...

CITY           SKY/WX    TMP DP  RH WIND       PRES   REMARKS
COVINGTON      CLOUDY    48  46  93 N14       29.54F FOG
COLUMBUS       LGT RAIN  51  47  86 N12       29.50F
DAYTON         CLOUDY    44  43  96 N13       29.56F FOG
WILMINGTON     CLOUDY    49  47  93 N15       29.51S
HUNTINGTON     LGT RAIN  50  46  86 N9        29.41S
CHARLESTON     HVY RAIN  47  43  86 NE9       29.40S FOG
BECKLEY        LGT RAIN  44  42  93 NE10      29.35S FOG
BLUEFIELD      LGT RAIN  43  42  97 N10       29.33S FOG
LOGAN CO APT*  LGT RAIN  46  46 100 NE5       29.37S
$$

VAZ002-007-008-TNZ017-027-036-066-071-231900
...SOUTHWEST VIRGINIA/EAST TENNESSEE...

CITY           SKY/WX    TMP DP  RH WIND       PRES   REMARKS
WISE*          LGT RAIN  46  46 100 N3        29.36F
JONESVILLE*      N/A     55  48  76 N9        29.38F
ABINGDON*      RAIN      49  45  86 CALM      29.33F
BRISTOL        LGT RAIN  51  45  79 N7        29.34S
MORRISTOWN*    CLOUDY    55  50  82 N7        29.36S
SEVIERVILLE*   CLOUDY    52  52 100 W7        29.39R
KNOXVILLE      CLOUDY    55  51  86 NW8       29.40R
LAFOLLETTE*    CLOUDY    52  50  93 VRB7G18   29.46R FOG
OAK RIDGE      CLOUDY    58  47  66 NW7       29.43R
CROSSVILLE     CLOUDY    47  45  93 NW17G29   29.50R FOG
NASHVILLE      CLOUDY    48  40  73 NW17G26   29.66S
$$

...KEY TO REMARKS...
VSB - VISIBILITY IN MILES
WCI - WIND CHILL INDEX
HX  - HEAT INDEX

$$




USA.gov is the U.S. government's official web portal to all federal, state and local government web resources and services.